User: anonymous   Login
Location: Berville
(49.1893°N, 2.0748°E)
Time: 21:35:54
(UTC+00:00)
Language:

Cosmos 2058 Rocket - Orbit

View from above orbital plane
View from above orbital plane
View from above satellite
View from above satellite

Ground track
Ground track

The orbit data is extracted from the following two-line orbital elements,

1 20466U 90010B   24151.51916416  .00000692  00000-0  83235-4 0  9996
2 20466  82.5013 155.6642 0018615 275.4759  84.4332 14.82434542832417
Epoch (UTC): 30 May 2024 12:27:35
Eccentricity: 0.0018615
inclination: 82.5013°
perigee height: 608 km
apogee height: 634 km
right ascension of ascending node: 155.6642°
argument of perigee: 275.4759°
revolutions per day: 14.82434542
mean anomaly at epoch: 84.4332°
orbit number at epoch: 83241

The dashed part of the orbit path shows where the satellite is in the earth's shadow,  

DLR